Starlink 32581

operational
NORAD ID: 62184 Int'l Des: 2024-225 Owner: SPXS Country: US Constellation: starlink
LEOCIRCULAR

关于 Starlink 32581

正在加载描述...

实时位置

正在加载3D地球...

即将过境

高度历史

Altitude vs Time

uPlot chart will show altitude changes over time

两行轨道根数

1 62184U 24225X 25257.35335068 .00000293 00000-0 32347-4 0 9997
2 62184 69.9988 238.9680 0003848 271.8719 88.1999 14.98334902 43718
Epoch: Sep 14, 2025 • Age: 27 hours

当前状态

高度 591.2 km
速度 7.56 km/s
星下点 -57.08°S, 72.48°W
发射日期 Nov 30, 2024
运行时间 0.7 years
类型 internet

技术详情

分类 Payload
质量 730.00 kg
干质量 700.00 kg
总质量 730.00 kg
长度 0.30 m
直径 4.10 m
跨度 29.00 m
形状 Box + pan
制造商 SPXS
平台类型 Starlink V2M
阶段状态 In Orbit
所有者/国家 SPXS/US

大型星座

Loading constellations...